Change the Weather History Date:

Thursday, July 26, 2012

  Actual Average Record
Temperature  
Mean Temperature 79 °F 70 °F  
Max Temperature 87 °F 80 °F 93 °F (1934)
Min Temperature 71 °F 61 °F 42 °F (1911)
Degree Days  
Heating Degree Days 0 0  
Month to date heating degree days 0 0  
Since 1 June heating degree days 50 39  
Since 1 July heating degree days 0 0  
Cooling Degree Days 14 6  
Month to date cooling degree days 256 156  
Year to date cooling degree days 493 308  
Since 1 June cooling degree days 379 267  
Growing Degree Days 29 (Base 50)    
Moisture  
Dew Point 69 °F    
Average Humidity 72    
Maximum Humidity 93    
Minimum Humidity 50    
Precipitation  
Precipitation 0.00 in 0.16 in 3.48 in (2001)
Month to date precipitation 5.60 4.18  
Year to date precipitation 26.87 25.34  
Snow  
Snow 0.00 in - - ()
Month to date snowfall 0.0  
Since 1 September snowfall 36.0  
Snow Depth 0.00 in    
Sea Level Pressure  
Sea Level Pressure 29.87 in    
Wind  
Wind Speed 9 mph (SW)    
Max Wind Speed 20 mph    
Max Gust Speed 26 mph    
Visibility 10 miles    
Events      
T = Trace of Precipitation, MM = Missing Value Source: NWS Daily Summary

Daily Weather History Graph

Daily Weather History Graph

Search for Another Location

Airport or City:

Trip Planner

Search our weather history database for the weather conditions in past years. The results will help you decide how hot, cold, wet, or windy it might be!

Date:

Astronomy

Jul. 26, 2012 Rise Set
Actual Time 6:23 AM EDT 8:38 PM EDT
Civil Twilight 5:53 AM EDT 9:07 PM EDT
Nautical Twilight 5:17 AM EDT 9:43 PM EDT
Astronomical Twilight 4:37 AM EDT 10:23 PM EDT
Moon 2:24 PM EDT (7/26) 12:13 AM EDT (7/26)
Length of Visible Light 15h 13m
Length of Day
14h 14m
First Quarter, 53% of the Moon is Illuminated
Jul 26
First Quarter
Aug 1
Full
Aug 9
Last Quarter
Aug 17
New
Aug 24
First Quarter

Hourly Weather History & Observations

Time (EDT) Temp. Heat Index Dew Point Humidity Pressure Visibility Wind Dir Wind Speed Gust Speed Precip Events Conditions
12:51 AM 73.9 °F - 71.1 °F 91% 29.87 in 6.0 mi SW 5.8 mph - N/A   Clear
1:51 AM 73.9 °F - 70.0 °F 87% 29.85 in 9.0 mi SSW 5.8 mph - N/A   Clear
2:51 AM 73.9 °F - 70.0 °F 87% 29.84 in 10.0 mi SW 5.8 mph - N/A   Clear
3:51 AM 73.0 °F - 70.0 °F 90% 29.84 in 10.0 mi SW 5.8 mph - N/A   Clear
4:51 AM 73.0 °F - 69.1 °F 87% 29.84 in 10.0 mi WSW 8.1 mph - N/A   Clear
5:51 AM 73.0 °F - 68.0 °F 84% 29.86 in 10.0 mi WSW 6.9 mph - N/A   Clear
6:51 AM 71.6 °F - 68.0 °F 88% 29.99 in 10.0 mi SW 5.8 mph - N/A   Clear
7:43 AM 73.4 °F - 68.0 °F 83% 30.01 in 10.0 mi SW 4.6 mph - N/A   Mostly Cloudy
7:51 AM 73.0 °F - 68.0 °F 84% 29.89 in 10.0 mi SW 4.6 mph - N/A   Mostly Cloudy
8:06 AM 73.4 °F - 69.8 °F 88% 30.02 in 10.0 mi SW 5.8 mph - N/A   Mostly Cloudy
8:51 AM 75.9 °F - 69.1 °F 79% 29.90 in 10.0 mi SW 9.2 mph - N/A   Partly Cloudy
9:41 AM 77.0 °F - 69.8 °F 78% 30.01 in 10.0 mi WSW 8.1 mph - N/A   Mostly Cloudy
9:51 AM 77.0 °F - 69.1 °F 76% 29.89 in 10.0 mi WSW 8.1 mph - N/A   Mostly Cloudy
10:51 AM 78.1 °F - 69.1 °F 74% 29.90 in 10.0 mi WSW 13.8 mph 21.9 mph N/A   Mostly Cloudy
11:27 AM 80.6 °F 83.9 °F 69.8 °F 70% 30.00 in 10.0 mi WSW 9.2 mph 19.6 mph N/A   Scattered Clouds
11:34 AM 80.6 °F 83.9 °F 69.8 °F 70% 30.00 in 10.0 mi West 15.0 mph 20.7 mph N/A   Mostly Cloudy
11:51 AM 81.0 °F 84.1 °F 69.1 °F 67% 29.88 in 10.0 mi WSW 16.1 mph 21.9 mph N/A   Scattered Clouds
12:51 PM 84.0 °F 87.0 °F 68.0 °F 58% 29.86 in 10.0 mi WSW 18.4 mph 23.0 mph N/A   Partly Cloudy
1:51 PM 84.9 °F 88.2 °F 68.0 °F 57% 29.85 in 10.0 mi WSW 11.5 mph 21.9 mph N/A   Scattered Clouds
2:51 PM 86.0 °F 88.8 °F 66.9 °F 53% 29.83 in 10.0 mi SW 11.5 mph - N/A   Clear
3:51 PM 86.0 °F 88.8 °F 66.9 °F 53% 29.80 in 10.0 mi SW 9.2 mph 18.4 mph N/A   Clear
4:51 PM 87.1 °F 89.9 °F 66.9 °F 51% 29.78 in 10.0 mi WSW 13.8 mph - N/A   Partly Cloudy
5:51 PM 86.0 °F 88.8 °F 66.9 °F 53% 29.76 in 10.0 mi WSW 11.5 mph 20.7 mph N/A   Partly Cloudy
6:51 PM 84.9 °F 87.6 °F 66.9 °F 55% 29.79 in 10.0 mi WSW 12.7 mph - N/A   Scattered Clouds
7:51 PM 82.0 °F 84.9 °F 68.0 °F 62% 29.81 in 10.0 mi SW 5.8 mph - N/A   Partly Cloudy
8:51 PM 79.0 °F - 68.0 °F 69% 29.81 in 10.0 mi SW 4.6 mph - N/A   Clear
9:51 PM 78.1 °F - 68.0 °F 71% 29.82 in 10.0 mi SSW 6.9 mph - N/A   Clear
10:51 PM 77.0 °F - 68.0 °F 74% 29.83 in 10.0 mi SSW 5.8 mph - N/A   Clear
11:51 PM 77.0 °F - 68.0 °F 74% 29.83 in 10.0 mi NNW 9.2 mph - N/A   Mostly Cloudy